FW1664 Weather Reports


time (UTC)temp
F
wind
direction
speed
knots
gust
knots
rain 1hr
in
rain 24hr
in
rain mn
in
humidity
%
barometer
mb
20260504044541 55 360 9.6 15.6 0.00 0.00 0.00 36 1009.8
20260504043038 56 360 12.2 17.4 0.00 0.00 0.00 35 1009.4
20260504041536 56 360 13.9 20.9 0.00 0.00 0.00 34 1008.9
20260504040036 58 360 13.9 17.4 0.00 0.00 0.00 37 1008.1
20260504034536 57 360 4.3 13.9 0.00 0.00 0.00 39 1007.4
20260504033038 58 360 5.2 7.8 0.00 0.00 0.00 37 1006.9
20260504031534 59 360 5.2 8.7 0.00 0.00 0.00 35 1006.7
20260504030033 60 360 5.2 10.4 0.00 0.00 0.00 34 1006.6
20260504024533 61 360 7.8 11.3 0.00 0.00 0.00 33 1006.5
20260504023033 63 360 8.7 14.8 0.00 0.00 0.00 31 1006.4
20260504021531 64 360 9.6 17.4 0.00 0.00 0.00 30 1006.3
20260504020031 66 360 8.7 13.0 0.00 0.00 0.00 28 1006.1
20260504014545 67 360 7.8 14.8 0.00 0.00 0.00 26 1006.0
20260504013039 70 360 12.2 17.4 0.00 0.00 0.00 23 1005.9
20260504011530 71 360 10.4 17.4 0.00 0.00 0.00 22 1005.9
20260504010028 72 360 8.7 19.1 0.00 0.00 0.00 23 1005.8
20260504004529 72 360 10.4 16.5 0.00 0.00 0.00 24 1005.9
20260504003026 72 360 10.4 18.2 0.00 0.00 0.00 25 1006.1
20260504001525 72 360 10.4 19.1 0.00 0.00 0.00 23 1006.2
20260504000037 73 360 12.2 20.0 0.00 0.00 0.00 24 1006.3
20260503234522 73 360 13.9 19.1 0.00 0.00 0.00 22 1006.4
20260503233024 73 360 13.0 17.4 0.00 0.00 0.00 23 1006.5
20260503231519 73 360 13.9 20.9 0.00 0.00 0.00 22 1006.5
20260503230018 74 360 10.4 17.4 0.00 0.00 0.00 21 1006.6
20260503224516 73 360 10.4 20.0 0.00 0.00 0.00 21 1006.9
20260503223015 73 360 11.3 21.7 0.00 0.00 0.00 21 1006.9
20260503221513 73 360 17.4 21.7 0.00 0.00 0.00 21 1007.1
20260503220014 73 360 13.0 18.2 0.00 0.00 0.00 20 1007.3
20260503214521 73 360 13.0 21.7 0.00 0.00 0.00 21 1007.5
20260503213006 73 360 12.2 20.0 0.00 0.00 0.00 21 1007.9
20260503211506 73 360 13.0 19.1 0.00 0.00 0.00 20 1008.0
20260503210009 72 360 11.3 15.6 0.00 0.00 0.00 21 1008.3
20260503204504 72 360 12.2 19.1 0.00 0.00 0.00 21 1008.5
20260503203001 72 360 13.9 24.3 0.00 0.00 0.00 22 1008.7
20260503201600 71 360 9.6 18.2 0.00 0.00 0.00 22 1008.7
20260503200058 72 360 10.4 17.4 0.00 0.00 0.00 21 1009.0
20260503194614 71 360 13.0 19.1 0.00 0.00 0.00 23 1009.3
20260503193053 70 360 13.0 17.4 0.00 0.00 0.00 22 1009.6
20260503191554 71 360 11.3 17.4 0.00 0.00 0.00 22 1009.7
20260503190059 69 360 9.6 17.4 0.00 0.00 0.00 23 1009.9
20260503184549 69 360 7.8 17.4 0.00 0.00 0.00 23 1010.2
20260503183051 69 360 11.3 17.4 0.00 0.00 0.00 24 1010.2
20260503181540 69 360 10.4 18.2 0.00 0.00 0.00 23 1010.5
20260503180039 69 360 10.4 18.2 0.00 0.00 0.00 25 1010.6
20260503174536 69 360 12.2 19.1 0.00 0.00 0.00 25 1010.9
20260503173056 68 360 13.9 17.4 0.00 0.00 0.00 24 1011.1
20260503171535 68 360 10.4 16.5 0.00 0.00 0.00 27 1011.2
20260503081525 39 360 0.9 3.5 0.00 0.00 0.00 70 1014.4
20260503071523 39 360 1.7 7.8 0.00 0.00 0.00 66 1014.7
20260503054555 46 360 1.7 4.3 0.00 0.00 0.00 60 1014.9
20260503053053 43 360 2.6 7.8 0.00 0.00 0.00 62 1015.0